Location: Amherst
(42.3800°N, 72.5240°W)
Time: 10:23:18
(UTC-04:00)

ISS - Pass Details

Date: 24 May 2021
Orbit: 417 x 422 km, 51.6° (Epoch: 14 June)

Event Time Altitude Azimuth Distance (km) Brightness Sun altitude
Rises 23:13:05 0° 306° (NW) 2,368 1.0 -23.0°
Reaches altitude 10° 23:15:16 10° 314° (NW) 1,503 0.0 -23.2°
Enters shadow 23:18:10 40° 10° (N) 634 -2.5 -23.4°
